TimeEDT,TemperatureF,Dew PointF,Humidity,Sea Level PressureIn,VisibilityMPH,Wind Direction,Wind SpeedMPH,Gust SpeedMPH,PrecipitationIn,Events,Conditions,WindDirDegrees,DateUTC
12:15 AM,-9999,-9999,N/A,30.11,10.0,WSW,3.5,-,N/A,,Scattered Clouds,240,2013-08-04 04:15:00
12:35 AM,-9999,-9999,N/A,30.10,10.0,WSW,4.6,-,N/A,,Scattered Clouds,240,2013-08-04 04:35:00
12:55 AM,-9999,-9999,N/A,30.10,10.0,WSW,3.5,-,N/A,,Mostly Cloudy,250,2013-08-04 04:55:00
1:15 AM,-9999,-9999,N/A,30.09,10.0,West,5.8,-,N/A,,Scattered Clouds,270,2013-08-04 05:15:00
1:35 AM,-9999,-9999,N/A,30.09,10.0,West,8.1,-,N/A,,Mostly Cloudy,270,2013-08-04 05:35:00
1:55 AM,-9999,-9999,N/A,30.09,10.0,West,10.4,-,N/A,Rain,Light Rain,280,2013-08-04 05:55:00
2:15 AM,-9999,-9999,N/A,30.09,10.0,Calm,Calm,-,N/A,,Overcast,0,2013-08-04 06:15:00
2:35 AM,-9999,-9999,N/A,30.09,10.0,West,5.8,-,N/A,Rain,Light Rain,280,2013-08-04 06:35:00
2:55 AM,-9999,-9999,N/A,30.09,4.0,NNE,3.5,-,0.05,Rain,Heavy Rain,20,2013-08-04 06:55:00
3:15 AM,-9999,-9999,N/A,30.09,2.0,North,3.5,-,0.35,Rain,Heavy Rain,360,2013-08-04 07:15:00
3:35 AM,-9999,-9999,N/A,30.09,7.0,Calm,Calm,-,0.38,Rain,Rain,0,2013-08-04 07:35:00
3:55 AM,-9999,-9999,N/A,30.08,2.5,Calm,Calm,-,0.40,Rain,Heavy Rain,0,2013-08-04 07:55:00
4:15 AM,-9999,-9999,N/A,30.08,10.0,Calm,Calm,-,N/A,Rain,Rain,0,2013-08-04 08:15:00
4:35 AM,-9999,-9999,N/A,30.08,10.0,Calm,Calm,-,N/A,,Overcast,0,2013-08-04 08:35:00
4:55 AM,-9999,-9999,N/A,30.08,10.0,Calm,Calm,-,N/A,,Mostly Cloudy,0,2013-08-04 08:55:00
5:15 AM,-9999,-9999,N/A,30.08,10.0,NW,4.6,-,N/A,,Scattered Clouds,310,2013-08-04 09:15:00
5:35 AM,-9999,-9999,N/A,30.09,10.0,WNW,8.1,-,N/A,,Scattered Clouds,300,2013-08-04 09:35:00
5:55 AM,-9999,-9999,N/A,30.09,10.0,WNW,9.2,-,N/A,,Clear,290,2013-08-04 09:55:00
6:15 AM,-9999,-9999,N/A,30.09,10.0,NW,6.9,-,N/A,,Mostly Cloudy,320,2013-08-04 10:15:00
6:35 AM,-9999,-9999,N/A,30.09,10.0,WNW,9.2,-,N/A,,Scattered Clouds,300,2013-08-04 10:35:00
6:55 AM,-9999,-9999,N/A,30.09,10.0,NW,9.2,-,N/A,,Clear,310,2013-08-04 10:55:00
7:15 AM,-9999,-9999,N/A,30.09,10.0,NW,10.4,17.3,N/A,,Clear,320,2013-08-04 11:15:00
7:35 AM,-9999,-9999,N/A,30.09,10.0,NW,8.1,17.3,N/A,,Scattered Clouds,310,2013-08-04 11:35:00
7:55 AM,-9999,-9999,N/A,30.11,10.0,NW,10.4,17.3,N/A,,Scattered Clouds,310,2013-08-04 11:55:00
8:15 AM,-9999,-9999,N/A,30.11,10.0,NW,8.1,-,N/A,,Mostly Cloudy,310,2013-08-04 12:15:00
8:35 AM,-9999,-9999,N/A,30.11,10.0,NW,6.9,16.1,N/A,,Mostly Cloudy,320,2013-08-04 12:35:00
8:55 AM,-9999,-9999,N/A,30.11,10.0,NNW,10.4,19.6,N/A,,Overcast,330,2013-08-04 12:55:00
9:15 AM,-9999,-9999,N/A,30.12,10.0,NNW,12.7,18.4,N/A,,Overcast,330,2013-08-04 13:15:00
9:35 AM,-9999,-9999,N/A,30.13,10.0,NW,11.5,20.7,N/A,,Overcast,310,2013-08-04 13:35:00
9:55 AM,-9999,-9999,N/A,30.12,10.0,NNW,13.8,19.6,N/A,,Overcast,330,2013-08-04 13:55:00
10:35 AM,-9999,-9999,N/A,30.13,10.0,NNW,16.1,24.2,N/A,,Unknown,330,2013-08-04 14:35:00
10:55 AM,-9999,-9999,N/A,30.13,10.0,NW,12.7,23.0,N/A,,Mostly Cloudy,310,2013-08-04 14:55:00
11:15 AM,-9999,-9999,N/A,30.14,10.0,NNW,10.4,23.0,N/A,,Scattered Clouds,330,2013-08-04 15:15:00
11:35 AM,-9999,-9999,N/A,30.15,10.0,NW,12.7,23.0,N/A,,Scattered Clouds,320,2013-08-04 15:35:00
11:55 AM,-9999,-9999,N/A,30.15,10.0,NW,6.9,16.1,N/A,,Mostly Cloudy,320,2013-08-04 15:55:00
12:15 PM,-9999,-9999,N/A,30.14,10.0,North,10.4,17.3,N/A,,Mostly Cloudy,350,2013-08-04 16:15:00
12:35 PM,-9999,-9999,N/A,30.14,10.0,NW,8.1,-,N/A,,Scattered Clouds,310,2013-08-04 16:35:00
12:55 PM,-9999,-9999,N/A,30.14,10.0,NW,15.0,24.2,N/A,,Clear,320,2013-08-04 16:55:00
1:15 PM,-9999,-9999,N/A,30.13,10.0,NW,6.9,19.6,N/A,,Clear,320,2013-08-04 17:15:00
1:35 PM,-9999,-9999,N/A,30.14,10.0,NNW,10.4,20.7,N/A,,Scattered Clouds,330,2013-08-04 17:35:00
1:55 PM,-9999,-9999,N/A,30.14,10.0,NNW,10.4,19.6,N/A,,Scattered Clouds,330,2013-08-04 17:55:00
2:15 PM,-9999,-9999,N/A,30.13,10.0,NNW,12.7,17.3,N/A,,Scattered Clouds,340,2013-08-04 18:15:00
2:35 PM,-9999,-9999,N/A,30.13,10.0,WNW,12.7,20.7,N/A,,Clear,290,2013-08-04 18:35:00
2:55 PM,-9999,-9999,N/A,30.13,10.0,NNW,9.2,19.6,N/A,,Clear,330,2013-08-04 18:55:00
3:15 PM,-9999,-9999,N/A,30.12,10.0,NNW,13.8,19.6,N/A,,Clear,330,2013-08-04 19:15:00
3:35 PM,74.5,47.7,39,30.12,10.0,NW,8.1,20.7,N/A,,Clear,320,2013-08-04 19:35:00
3:55 PM,74.3,48.6,40,30.12,10.0,WNW,15.0,19.6,N/A,,Clear,300,2013-08-04 19:55:00
4:15 PM,74.5,49.5,41,30.13,10.0,NNW,11.5,18.4,N/A,,Clear,330,2013-08-04 20:15:00
4:35 PM,74.3,50.0,42,30.12,10.0,NNW,9.2,17.3,N/A,,Clear,340,2013-08-04 20:35:00
4:55 PM,73.8,50.9,45,30.12,10.0,NNW,9.2,20.7,N/A,,Clear,330,2013-08-04 20:55:00
5:15 PM,73.4,51.8,47,30.12,10.0,NW,9.2,16.1,N/A,,Clear,320,2013-08-04 21:15:00
5:35 PM,73.4,52.3,48,30.12,10.0,NNW,8.1,19.6,N/A,,Clear,340,2013-08-04 21:35:00
5:55 PM,72.5,51.1,47,30.12,10.0,NW,9.2,-,N/A,,Scattered Clouds,320,2013-08-04 21:55:00
6:15 PM,71.8,51.4,49,30.12,10.0,NW,11.5,16.1,N/A,,Scattered Clouds,310,2013-08-04 22:15:00
6:35 PM,71.8,51.4,49,30.12,10.0,NW,8.1,-,N/A,,Clear,310,2013-08-04 22:35:00
6:55 PM,72.0,51.3,48,30.12,10.0,WNW,3.5,-,N/A,,Clear,290,2013-08-04 22:55:00
7:15 PM,71.8,50.9,48,30.11,10.0,WNW,4.6,-,N/A,,Clear,300,2013-08-04 23:15:00
7:35 PM,71.1,50.9,49,30.12,10.0,NW,6.9,-,N/A,,Clear,310,2013-08-04 23:35:00
7:55 PM,70.3,51.1,50,30.13,10.0,WNW,8.1,-,N/A,,Clear,300,2013-08-04 23:55:00
8:15 PM,69.6,51.3,52,30.13,10.0,WNW,5.8,-,N/A,,Clear,300,2013-08-05 00:15:00
8:35 PM,69.1,51.4,53,30.13,10.0,WNW,5.8,-,N/A,,Clear,290,2013-08-05 00:35:00
8:55 PM,66.9,52.9,61,30.14,10.0,Calm,Calm,-,N/A,,Scattered Clouds,0,2013-08-05 00:55:00
9:15 PM,66.4,53.6,63,30.14,10.0,Calm,Calm,-,N/A,,Overcast,0,2013-08-05 01:15:00
9:35 PM,65.5,54.1,67,30.16,10.0,Calm,Calm,-,N/A,,Overcast,0,2013-08-05 01:35:00
9:55 PM,64.9,54.5,69,30.17,10.0,ENE,3.5,-,N/A,,Overcast,60,2013-08-05 01:55:00
10:15 PM,64.6,54.5,70,30.17,10.0,Calm,Calm,-,N/A,,Overcast,0,2013-08-05 02:15:00
10:35 PM,65.1,54.5,68,30.17,10.0,Calm,Calm,-,N/A,,Overcast,0,2013-08-05 02:35:00
10:55 PM,64.4,55.0,72,30.18,10.0,Calm,Calm,-,N/A,,Overcast,0,2013-08-05 02:55:00
11:15 PM,64.4,55.4,73,30.18,10.0,Calm,Calm,-,N/A,,Overcast,0,2013-08-05 03:15:00
11:35 PM,64.0,55.0,73,30.18,10.0,Calm,Calm,-,N/A,,Scattered Clouds,0,2013-08-05 03:35:00
11:55 PM,63.9,55.2,73,30.18,10.0,Calm,Calm,-,N/A,,Mostly Cloudy,0,2013-08-05 03:55:00